Weather in Megra

Russia / Vologda Oblast     60°51′58″N   35°59′48″E
temp.,
°C
wind,
m/s
gust,
m/s
humid.,
%
clouds,
%
prec.,
mm/h
press.,
hPa
HPBL,
m
8 march, mon
mon800:00−9ne41094100 0.6 994694
03:00−11nne41193100 0.9 998655
06:00−13n41094100 0.3 1001549
09:00−16n4995100 0.4 1004440
12:00−15nnw4896100 0.1 1007409
15:00−14nnw4895100 0.1 1010512
18:00−16nnw4996100 0.1 1012479
21:00−18n3898100 0.2 1015300
9 march, tue
tue900:00−24nnw2310099 0.1 101664
03:00−27n2210099 0.1 101831
06:00−29nnw2210091 0.0 102022
09:00−28n249983 0.0 1022171
12:00−24nnw249677 0.0 1023288
15:00−22nnw349673 0.0 1024305
18:00−25nnw129986 0.0 102520
21:00−27nw1110089 0.0 102819
10 march, wed
wed1000:00−27w11100100 0.0 102819
03:00−27wsw11100100 0.0 102919
06:00−26wnw129278 0.0 102924
09:00−22wnw268783 0.0 1030202
12:00−16nw359392 0.0 1030338
15:00−13nw369193 0.0 1029390
18:00−15nnw129683 0.0 102920
21:00−19w119741 0.0 103120
11 march, thu
thu1100:00−19w11990 0.0 103120
03:00−21wsw11980 0.0 103120
06:00−21ssw11920 0.0 103120
09:00−16s23860 0.0 103193
12:00−9ssw25850 0.0 1029381
15:00−6ssw47800 0.0 1027874
18:00−9s310860 0.0 1024430
21:00−11ssw413860 0.0 1023471
12 march, fri
fri1200:00−12ssw3108916 0.0 1022340
03:00−13s311918 0.0 1021269
06:00−13s411890 0.0 1020275
09:00−11s513850 0.0 1018371
12:00−7s613810 0.0 1017560
15:00−4s612800 0.0 1015727
18:00−6s615820 0.0 1013675
21:00−8s616850 0.0 1013722